When you browse on this site, cookies collect data to enhance your experience and personalize the content and advertising you see.
Visit our Privacy Policy to learn more. By continuing to use the site, you agree to this use of cookies and data.
  • In Slovakia
  • List of Countries
  • For 7 days
  • Water Temperature
  • Weather Map
  • Weather Widgets
  • user-avatar
    Login

    Hourly Weather Grossarltal

    Today, 6 June, Saturday

    Time Temperature Precipitation Wind Pressure Humidity
    00:00 +6°C° 0 mm 1 mps 628 mmHg 95%
    01:00 +6°C° 0 mm 1 mps 628 mmHg 97%
    02:00 +6°C° 0 mm 1 mps 628 mmHg 96%
    03:00 +6°C° 0 mm 1 mps 628 mmHg 96%
    04:00 +6°C° 0 mm 1 mps 628 mmHg 96%
    05:00 +6°C° 0 mm 2 mps 629 mmHg 93%
    06:00 +8°C° 0 mm 2 mps 630 mmHg 91%
    07:00 +9°C° 0 mm 2 mps 630 mmHg 88%
    08:00 +12°C° 0 mm 2 mps 631 mmHg 82%
    09:00 +13°C° 0 mm 2 mps 631 mmHg 76%
    10:00 +14°C° 0 mm 2 mps 632 mmHg 70%
    11:00 +15°C° 0.2 mm 2 mps 632 mmHg 70%
    12:00 +16°C° 0.2 mm 2 mps 632 mmHg 69%
    13:00 +16°C° 0.2 mm 2 mps 632 mmHg 68%
    14:00 +16°C° 1 mm 2 mps 632 mmHg 75%
    15:00 +15°C° 1 mm 2 mps 631 mmHg 82%
    16:00 +14°C° 1 mm 2 mps 631 mmHg 90%
    17:00 +13°C° 0.9 mm 2 mps 631 mmHg 92%
    18:00 +12°C° 0.9 mm 1 mps 631 mmHg 95%
    19:00 +11°C° 0.9 mm 1 mps 630 mmHg 98%
    20:00 +11°C° 0.3 mm 1 mps 631 mmHg 98%
    21:00 +10°C° 0.3 mm 1 mps 631 mmHg 98%
    22:00 +8°C° 0.3 mm 0 mps 631 mmHg 99%
    23:00 +8°C° 0.1 mm 0 mps 631 mmHg 99%

    Tomorrow, 7 June, Sunday

    Time Temperature Precipitation Wind Pressure Humidity
    00:00 +8°C° 0.1 mm 0 mps 630 mmHg 98%
    01:00 +8°C° 0.1 mm 0 mps 630 mmHg 98%
    02:00 +8°C° 0 mm 0 mps 630 mmHg 98%
    03:00 +9°C° 0 mm 1 mps 630 mmHg 98%
    04:00 +9°C° 0 mm 1 mps 630 mmHg 97%
    05:00 +9°C° 0 mm 1 mps 630 mmHg 97%
    06:00 +10°C° 0 mm 1 mps 630 mmHg 96%
    07:00 +10°C° 0 mm 1 mps 631 mmHg 96%
    08:00 +11°C° 0.2 mm 1 mps 631 mmHg 93%
    09:00 +13°C° 0.2 mm 1 mps 632 mmHg 89%
    10:00 +14°C° 0.2 mm 1 mps 632 mmHg 86%
    11:00 +14°C° 0.9 mm 1 mps 632 mmHg 87%
    12:00 +14°C° 0.9 mm 2 mps 632 mmHg 88%
    13:00 +13°C° 0.9 mm 2 mps 632 mmHg 89%
    14:00 +12°C° 1 mm 2 mps 632 mmHg 91%
    15:00 +10°C° 1 mm 2 mps 631 mmHg 94%
    16:00 +9°C° 1 mm 2 mps 631 mmHg 96%
    17:00 +9°C° 1.5 mm 2 mps 631 mmHg 97%
    18:00 +8°C° 1.5 mm 2 mps 631 mmHg 98%
    19:00 +8°C° 1.5 mm 1 mps 631 mmHg 99%
    20:00 +7°C° 1.7 mm 1 mps 631 mmHg 98%
    21:00 +7°C° 1.7 mm 1 mps 631 mmHg 98%
    22:00 +7°C° 1.7 mm 1 mps 631 mmHg 98%
    23:00 +7°C° 0.2 mm 1 mps 631 mmHg 98%

    Day after tomorrow, 8 June, Monday

    Time Temperature Precipitation Wind Pressure Humidity
    00:00 +6°C° 0.2 mm 1 mps 631 mmHg 98%
    01:00 +6°C° 0.2 mm 1 mps 631 mmHg 98%
    02:00 +6°C° 0.1 mm 1 mps 631 mmHg 98%
    03:00 +6°C° 0.1 mm 1 mps 631 mmHg 98%
    04:00 +6°C° 0.1 mm 1 mps 631 mmHg 98%
    05:00 +6°C° 0.1 mm 1 mps 631 mmHg 98%
    06:00 +7°C° 0.1 mm 1 mps 631 mmHg 98%
    07:00 +7°C° 0.1 mm 1 mps 631 mmHg 97%
    08:00 +7°C° 0.2 mm 1 mps 632 mmHg 97%
    09:00 +8°C° 0.2 mm 1 mps 632 mmHg 96%
    10:00 +8°C° 0.2 mm 1 mps 633 mmHg 95%
    11:00 +8°C° 0.3 mm 1 mps 633 mmHg 95%
    12:00 +8°C° 0.3 mm 1 mps 633 mmHg 94%
    13:00 +9°C° 0.3 mm 1 mps 633 mmHg 93%
    14:00 +9°C° 0.1 mm 1 mps 633 mmHg 92%
    15:00 +10°C° 0.1 mm 1 mps 633 mmHg 91%
    16:00 +9°C° 0.1 mm 0 mps 633 mmHg 89%
    17:00 +10°C° 0 mm 1 mps 633 mmHg 90%
    18:00 +10°C° 0 mm 1 mps 633 mmHg 91%
    19:00 +10°C° 0 mm 1 mps 633 mmHg 93%
    20:00 +8°C° 0 mm 0 mps 633 mmHg 94%
    21:00 +8°C° 0 mm 0 mps 633 mmHg 95%
    22:00 +7°C° 0 mm 0 mps 633 mmHg 97%
    23:00 +7°C° 0.2 mm 0 mps 633 mmHg 97%

    9 June, Tuesday

    Time Temperature Precipitation Wind Pressure Humidity
    00:00 +7°C° 0.2 mm 0 mps 633 mmHg 97%
    01:00 +7°C° 0.2 mm 0 mps 633 mmHg 97%
    02:00 +7°C° 0.1 mm 0 mps 633 mmHg 97%
    03:00 +7°C° 0.1 mm 0 mps 633 mmHg 97%
    04:00 +6°C° 0.1 mm 0 mps 633 mmHg 97%
    05:00 +7°C° 0.2 mm 0 mps 633 mmHg 96%
    06:00 +8°C° 0.2 mm 0 mps 633 mmHg 95%
    07:00 +8°C° 0.2 mm 0 mps 634 mmHg 94%
    08:00 +9°C° 0.3 mm 0 mps 634 mmHg 93%
    09:00 +10°C° 0.3 mm 1 mps 634 mmHg 92%
    10:00 +10°C° 0.3 mm 1 mps 634 mmHg 91%
    11:00 +10°C° 0.4 mm 1 mps 634 mmHg 92%
    12:00 +11°C° 0.4 mm 1 mps 634 mmHg 93%
    13:00 +11°C° 0.4 mm 1 mps 634 mmHg 94%
    14:00 +11°C° 0.4 mm 1 mps 634 mmHg 94%
    15:00 +10°C° 0.4 mm 0 mps 634 mmHg 94%
    16:00 +10°C° 0.4 mm 0 mps 634 mmHg 95%
    17:00 +10°C° 0.1 mm 0 mps 634 mmHg 95%
    18:00 +10°C° 0.1 mm 0 mps 634 mmHg 96%
    19:00 +10°C° 0.1 mm 0 mps 634 mmHg 96%
    20:00 +9°C° 0 mm 0 mps 634 mmHg 96%
    21:00 +8°C° 0 mm 0 mps 634 mmHg 97%
    22:00 +7°C° 0 mm 0 mps 634 mmHg 97%
    23:00 +7°C° 0 mm 1 mps 633 mmHg 97%

    10 June, Wednesday

    Time Temperature Precipitation Wind Pressure Humidity
    00:00 +7°C° 0 mm 1 mps 633 mmHg 96%
    01:00 +7°C° 0 mm 1 mps 633 mmHg 96%
    02:00 +6°C° 0 mm 0 mps 633 mmHg 95%
    03:00 +6°C° 0 mm 0 mps 633 mmHg 95%
    04:00 +6°C° 0 mm 0 mps 633 mmHg 95%
    05:00 +7°C° 0.1 mm 0 mps 633 mmHg 94%
    06:00 +8°C° 0.1 mm 0 mps 634 mmHg 92%
    07:00 +9°C° 0.1 mm 0 mps 634 mmHg 91%
    08:00 +10°C° 1 mm 0 mps 634 mmHg 92%
    09:00 +10°C° 1 mm 0 mps 635 mmHg 92%
    10:00 +11°C° 1 mm 1 mps 635 mmHg 93%
    11:00 +10°C° 1.8 mm 0 mps 635 mmHg 93%
    12:00 +10°C° 1.8 mm 0 mps 635 mmHg 94%
    13:00 +9°C° 1.8 mm 0 mps 634 mmHg 94%
    14:00 +10°C° 0.7 mm 0 mps 634 mmHg 93%
    15:00 +11°C° 0.7 mm 1 mps 635 mmHg 91%
    16:00 +12°C° 0.7 mm 1 mps 635 mmHg 89%
    17:00 +11°C° 0.1 mm 1 mps 635 mmHg 92%
    18:00 +11°C° 0.1 mm 1 mps 635 mmHg 94%
    19:00 +10°C° 0.1 mm 1 mps 635 mmHg 96%
    20:00 +10°C° 0.1 mm 1 mps 635 mmHg 97%
    21:00 +9°C° 0.1 mm 1 mps 635 mmHg 97%
    22:00 +8°C° 0.1 mm 1 mps 635 mmHg 98%
    23:00 +9°C° 0.1 mm 1 mps 635 mmHg 98%

    11 June, Thursday

    Time Temperature Precipitation Wind Pressure Humidity
    00:00 +9°C° 0.1 mm 1 mps 635 mmHg 98%
    01:00 +9°C° 0.1 mm 1 mps 634 mmHg 98%
    02:00 +9°C° 0.5 mm 1 mps 634 mmHg 98%
    03:00 +9°C° 0.5 mm 1 mps 634 mmHg 98%
    04:00 +9°C° 0.5 mm 1 mps 634 mmHg 98%
    05:00 +9°C° 1.2 mm 1 mps 634 mmHg 98%
    06:00 +9°C° 1.2 mm 1 mps 634 mmHg 99%
    07:00 +9°C° 1.2 mm 1 mps 634 mmHg 99%
    08:00 +9°C° 1.7 mm 1 mps 634 mmHg 98%
    09:00 +9°C° 1.7 mm 1 mps 634 mmHg 98%
    10:00 +9°C° 1.7 mm 1 mps 635 mmHg 98%
    11:00 +9°C° 1.2 mm 1 mps 634 mmHg 98%
    12:00 +9°C° 1.2 mm 1 mps 634 mmHg 98%
    13:00 +9°C° 1.2 mm 1 mps 634 mmHg 98%
    14:00 +9°C° 0.7 mm 1 mps 634 mmHg 98%
    15:00 +9°C° 0.7 mm 1 mps 634 mmHg 98%
    16:00 +9°C° 0.7 mm 1 mps 634 mmHg 98%
    17:00 +9°C° 0.3 mm 1 mps 634 mmHg 98%
    18:00 +8°C° 0.3 mm 1 mps 634 mmHg 98%
    19:00 +8°C° 0.3 mm 1 mps 634 mmHg 98%
    20:00 +8°C° 0.1 mm 1 mps 634 mmHg 98%
    21:00 +8°C° 0.1 mm 1 mps 634 mmHg 99%
    22:00 +8°C° 0.1 mm 1 mps 634 mmHg 99%
    23:00 +7°C° 0.1 mm 0 mps 633 mmHg 99%
    Show more